DELFI-N3XT (39428 NORAD) Tracking and Keplerian Element Data

This shows tracking and keplerian element data for the satellite.

Feedback or suggestion? Click here.




ElementValue
Catalog39428
NameDELFI-N3XT
Epoch Orbit48150
Epoch Day324.86260008
Epoch Year2022
RAAN252.6151
Inclination97.8234
Eccentricity0.011648
Argument of Perigee136.8302
Mean Anonmoly224.211
Mean Motion14.70011749
Decay Rate1.758E-05
L11 39428U 13066N 22324.86260008 .00001758 00000+0 27183-3 0 9999
L22 39428 97.8234 252.6151 0116480 136.8302 224.2110 14.70011749481500



Live tracking and technical data element details for DELFI-N3XT (NORAD 39428). DELFI-N3XT can be tracked NOW for your location showing map with azimuth and elevation plus other details from your city location.







IsCatalogInMostPopularTable: catalog: 39428, numindb: 112
Update: records affected: 1



GetName: 39428 DELFI-N3XT

Hit Count: updated at: Fri, 02 Dec 2022 14:07:43 GMT